Location: Gollag?dem
(16.8053°N, 80.8024°E)
Time: 21:37:13
(UTC+00:00)

ISS - Visible Passes

Search period start: 03 October 2023 00:00
Search period end: 13 October 2023 00:00
Orbit: 414 x 421 km, 51.6° (Epoch: 03 October)

Date Brightness Start Highest point End Pass type
(mag) Time Alt. Az. Time Alt. Az. Time Alt. Az.
05 Oct -0.6 14:21:38 10° NW 14:21:56 12° NW 14:21:56 12° NW visible
06 Oct -3.7 13:33:26 10° NNW 13:36:37 56° NE 13:36:37 56° NE visible
07 Oct -2.6 12:45:39 10° N 12:48:27 25° NE 12:51:15 10° ESE visible
07 Oct -0.5 14:23:33 10° W 14:24:31 12° WSW 14:24:31 12° WSW visible
08 Oct -1.6 13:33:54 10° WNW 13:36:44 26° SW 13:39:35 10° S visible
09 Oct -3.3 12:45:11 10° NW 12:48:28 63° SW 12:51:46 10° SSE visible
11 Oct -0.6 12:46:29 10° W 12:48:11 13° SW 12:49:54 10° SSW visible
